FW5316 Weather Reports


Display with metric or nautical units.
time (UTC)temp
F
wind
direction
speed
MPH
gust
MPH
rain 1hr
in
rain 24hr
in
rain mn
in
humidity
%
barometer
mb
20260903214036 83 253 5.0 11.0 0.00 0.00 0.00 53 1013.9
20260903213016 83 233 6.0 16.0 0.00 0.00 0.00 53 1013.9
20260903212036 84 239 5.0 12.0 0.00 0.00 0.00 49 1014.0
20260903211036 84 248 4.0 9.0 0.00 0.00 0.00 47 1014.0
20260903210016 84 213 5.0 11.0 0.00 0.00 0.00 49 1014.0
20260903205015 84 230 5.0 11.0 0.00 0.00 0.00 52 1013.9
20260903204015 85 251 5.0 12.0 0.00 0.00 0.00 53 1013.9
20260903203015 84 224 5.0 11.0 0.00 0.00 0.00 53 1014.0
20260903202015 84 248 5.0 10.0 0.00 0.00 0.00 54 1014.0
20260903201055 84 260 5.0 9.0 0.00 0.00 0.00 54 1014.1
20260903200015 85 221 6.0 11.0 0.00 0.00 0.00 53 1014.1
20260903195015 85 244 4.0 12.0 0.00 0.00 0.00 53 1014.2
20260903194015 85 240 4.0 11.0 0.00 0.00 0.00 53 1014.3
20260903193015 84 254 5.0 13.0 0.00 0.00 0.00 53 1014.3
20260903192015 83 236 4.0 12.0 0.00 0.00 0.00 55 1014.3
20260903191036 83 242 5.0 13.0 0.00 0.00 0.00 56 1014.4
20260903190015 82 220 6.0 14.0 0.00 0.00 0.00 58 1014.6
20260903185015 81 216 8.0 16.0 0.00 0.00 0.00 59 1014.7
20260903184015 82 197 9.0 14.0 0.00 0.00 0.00 58 1015.0
20260903183015 83 206 7.0 13.0 0.00 0.00 0.00 56 1015.1
20260903182015 83 206 7.0 12.0 0.00 0.00 0.00 55 1015.2
20260903181015 84 192 6.0 13.0 0.00 0.00 0.00 53 1015.2
20260903180015 84 200 5.0 10.0 0.00 0.00 0.00 54 1015.1
20260903175035 84 216 5.0 11.0 0.00 0.00 0.00 52 1015.2
20260903174015 84 235 4.0 12.0 0.00 0.00 0.00 52 1015.2
20260903173015 83 260 2.0 6.0 0.00 0.00 0.00 51 1015.3
20260903172036 81 179 4.0 7.0 0.00 0.00 0.00 55 1015.2
20260903171015 80 114 2.0 4.0 0.00 0.00 0.00 56 1015.2
20260903170015 80 105 2.0 6.0 0.00 0.00 0.00 56 1015.2
20260903165035 80 145 2.0 5.0 0.00 0.00 0.00 56 1015.3
20260903164035 82 231 2.0 4.0 0.00 0.00 0.00 53 1015.3
20260903163015 81 338 2.0 4.0 0.00 0.00 0.00 56 1015.3
20260903162015 80 9 1.0 4.0 0.00 0.00 0.00 59 1015.4
20260903161015 79 6 0.0 4.0 0.00 0.00 0.00 59 1015.5
20260903160015 76 21 1.0 4.0 0.00 0.00 0.00 64 1015.5
20260903155015 74 55 1.0 3.0 0.00 0.00 0.00 66 1015.4
20260903154017 73 85 0.0 2.0 0.00 0.00 0.00 67 1015.4
20260903153017 71 85 1.0 4.0 0.00 0.00 0.00 69 1015.4
20260903152017 70 81 3.0 4.0 0.00 0.00 0.00 69 1015.4
20260903151017 69 80 2.0 4.0 0.00 0.00 0.00 70 1015.4
20260903150037 69 80 2.0 4.0 0.00 0.00 0.00 69 1015.5
20260903145018 69 81 2.0 4.0 0.00 0.00 0.00 70 1015.5
20260903144017 67 82 2.0 4.0 0.00 0.00 0.00 72 1015.4
20260903143017 66 0.0 0.0 0.00 0.00 0.00 73 1015.3
20260903142016 66 0.0 0.0 0.00 0.00 0.00 74 1015.3
20260903141016 64 0.0 0.0 0.00 0.00 0.00 77 1015.1
20260903140016 63 0.0 2.0 0.00 0.00 0.00 79 1015.0
20260903135018 62 26 0.0 2.0 0.00 0.00 0.00 80 1014.8
20260903134016 62 0.0 0.0 0.00 0.00 0.00 81 1014.7
20260903133016 62 0.0 0.0 0.00 0.00 0.00 80 1014.6
20260903132016 62 26 0.0 3.0 0.00 0.00 0.00 80 1014.7
20260903131016 62 18 2.0 3.0 0.00 0.00 0.00 80 1014.7
20260903130017 62 0.0 0.0 0.00 0.00 0.00 80 1014.7
20260903125016 62 10 0.0 2.0 0.00 0.00 0.00 80 1014.7
20260903124016 62 10 1.0 3.0 0.00 0.00 0.00 80 1014.7
20260903123016 62 349 1.0 2.0 0.00 0.00 0.00 80 1014.8
20260903122016 62 0.0 0.0 0.00 0.00 0.00 81 1014.7
20260903121017 63 0.0 0.0 0.00 0.00 0.00 81 1014.6
20260903120036 63 0.0 0.0 0.00 0.00 0.00 80 1014.7
20260903115016 63 0.0 0.0 0.00 0.00 0.00 81 1014.8
20260903114017 63 0.0 0.0 0.00 0.00 0.00 81 1014.7
20260903113016 63 0.0 0.0 0.00 0.00 0.00 81 1014.7
20260903112017 63 0.0 0.0 0.00 0.00 0.00 81 1014.8
20260903111016 64 0.0 0.0 0.00 0.00 0.00 81 1014.9
20260903110016 64 0.0 0.0 0.00 0.00 0.00 82 1014.9
20260903105016 64 0.0 0.0 0.00 0.00 0.00 82 1015.0
20260903104016 64 0.0 0.0 0.00 0.00 0.00 83 1014.9
20260903103037 64 0.0 0.0 0.00 0.00 0.00 83 1014.9
20260903102016 64 0.0 0.0 0.00 0.00 0.00 83 1014.9
20260903101017 64 0.0 0.0 0.00 0.00 0.00 82 1015.0
20260903100016 64 0.0 0.0 0.00 0.00 0.00 82 1015.0
20260903095018 64 0.0 0.0 0.00 0.00 0.00 83 1015.1
20260903094036 64 314 0.0 2.0 0.00 0.00 0.00 82 1015.1
20260903093016 65 0.0 0.0 0.00 0.00 0.00 82 1015.3
20260903092016 65 0.0 0.0 0.00 0.00 0.00 82 1015.3
20260903091016 65 0.0 0.0 0.00 0.00 0.00 82 1015.4
20260903090036 65 0.0 0.0 0.00 0.00 0.00 82 1015.5
20260903085016 65 0.0 0.0 0.00 0.00 0.00 82 1015.5
20260903084016 65 0.0 0.0 0.00 0.00 0.00 82 1015.7
20260903083016 65 0.0 0.0 0.00 0.00 0.00 81 1015.8
20260903082037 65 0.0 0.0 0.00 0.00 0.00 81 1015.8
20260903081016 65 0.0 0.0 0.00 0.00 0.00 81 1015.9
20260903080016 65 0.0 0.0 0.00 0.00 0.00 81 1016.0
20260903075016 65 0.0 0.0 0.00 0.00 0.00 81 1015.9
20260903074056 66 0.0 0.0 0.00 0.00 0.00 81 1015.9
20260903073036 66 0.0 0.0 0.00 0.00 0.00 81 1015.8
20260903072016 66 0.0 0.0 0.00 0.00 0.00 81 1015.7
20260903071016 66 0.0 0.0 0.00 0.00 0.00 80 1015.8
20260903070016 66 0.0 0.0 0.00 0.00 0.00 80 1015.8
20260903065017 66 0.0 0.0 0.00 0.00 0.00 80 1015.9
20260903064017 66 0.0 0.0 0.00 0.00 0.00 80 1015.9
20260903063016 67 0.0 0.0 0.00 0.00 0.00 80 1015.9
20260903062017 67 0.0 0.0 0.00 0.00 0.00 79 1015.9
20260903061016 67 0.0 0.0 0.00 0.00 0.00 79 1015.9
20260903060016 67 0.0 0.0 0.00 0.00 0.00 79 1016.0
20260903055016 67 0.0 0.0 0.00 0.00 0.00 78 1016.1
20260903054037 67 0.0 0.0 0.00 0.00 0.00 78 1016.1
20260903053017 68 0.0 0.0 0.00 0.00 0.00 78 1016.1
20260903052016 68 0.0 0.0 0.00 0.00 0.00 78 1016.2
20260903051017 68 0.0 0.0 0.00 0.00 0.00 78 1016.2
20260903050016 68 0.0 0.0 0.00 0.00 0.00 78 1016.3
20260903045016 68 0.0 3.0 0.00 0.00 0.00 78 1016.2
20260903044036 68 313 1.0 3.0 0.00 0.00 0.00 77 1016.2
20260903043019 69 314 1.0 3.0 0.00 0.00 0.00 77 1016.1
20260903042016 69 315 1.0 3.0 0.00 0.00 0.00 76 1016.0
20260903041018 69 315 1.0 3.0 0.00 0.00 0.00 76 1016.0
20260903040016 69 318 2.0 4.0 0.00 0.00 0.00 76 1015.9
20260903035017 70 313 2.0 5.0 0.00 0.00 0.00 76 1015.8
20260903034017 70 319 2.0 5.0 0.00 0.00 0.00 76 1015.7
20260903033017 70 321 3.0 8.0 0.00 0.00 0.00 76 1015.6
20260903032016 70 314 2.0 7.0 0.00 0.00 0.00 75 1015.5
20260903031016 70 308 2.0 5.0 0.00 0.00 0.00 75 1015.4
20260903030016 71 289 2.0 6.0 0.00 0.00 0.00 75 1015.4
20260903025016 71 289 2.0 6.0 0.00 0.00 0.00 75 1015.3
20260903024016 71 282 4.0 8.0 0.00 0.00 0.00 74 1015.2
20260903023016 72 285 5.0 9.0 0.00 0.00 0.00 73 1015.2
20260903022017 72 288 6.0 10.0 0.00 0.00 0.00 72 1015.3
20260903021016 73 288 5.0 10.0 0.00 0.00 0.00 70 1015.3
20260903020016 73 286 3.0 9.0 0.00 0.00 0.00 68 1015.3
20260903015016 74 280 3.0 10.0 0.00 0.00 0.00 66 1015.1
20260903014016 75 278 5.0 9.0 0.00 0.00 0.00 64 1015.1
20260903013037 75 273 4.0 9.0 0.00 0.00 0.00 61 1015.0
20260903012016 76 295 2.0 7.0 0.00 0.00 0.00 57 1015.0
20260903011016 76 260 3.0 9.0 0.00 0.00 0.00 56 1014.9
20260903010016 77 290 2.0 9.0 0.00 0.00 0.00 56 1014.9
20260903005036 77 274 5.0 9.0 0.00 0.00 0.00 55 1014.9
20260903004056 77 240 2.0 9.0 0.00 0.00 0.00 56 1014.9
20260903003036 78 266 4.0 10.0 0.00 0.00 0.00 56 1014.9
20260903002016 78 299 5.0 11.0 0.00 0.00 0.00 56 1015.0
20260903001016 78 296 4.0 12.0 0.00 0.00 0.00 56 1015.0
20260903000016 79 292 5.0 9.0 0.00 0.00 0.00 56 1015.1
20260902235016 79 266 4.0 10.0 0.00 0.00 0.00 56 1015.1
20260902234016 80 282 4.0 11.0 0.00 0.00 0.00 56 1015.2
20260902233036 80 301 7.0 15.0 0.00 0.00 0.00 56 1015.2
20260902232016 81 296 4.0 11.0 0.00 0.00 0.00 55 1015.3
20260902231016 81 236 4.0 10.0 0.00 0.00 0.00 54 1015.4
20260902230036 82 241 3.0 9.0 0.00 0.00 0.00 53 1015.5
20260902225016 82 290 4.0 10.0 0.00 0.00 0.00 53 1015.5
20260902224016 82 290 5.0 12.0 0.00 0.00 0.00 54 1015.5
20260902223016 83 262 5.0 10.0 0.00 0.00 0.00 53 1015.6
20260902222016 83 266 7.0 12.0 0.00 0.00 0.00 54 1015.7
20260902221016 83 278 4.0 12.0 0.00 0.00 0.00 53 1015.8
20260902220016 84 243 6.0 14.0 0.00 0.00 0.00 51 1015.8
20260902215016 83 242 5.0 10.0 0.00 0.00 0.00 50 1015.8